Weather History for Los Alamos, NM

Change the Weather History Date:

Monday, April 15, 2013

  Actual Average Record
Temperature  
Mean Temperature 57 °F -  
Max Temperature 68 °F 59 °F 75 °F (2008)
Min Temperature 46 °F 32 °F 17 °F (1961)
Degree Days  
Heating Degree Days 8    
Growing Degree Days 7 (Base 50)    
Moisture  
Dew Point 19 °F    
Average Humidity 25    
Maximum Humidity 40    
Minimum Humidity 13    
Precipitation  
Precipitation 0.00 in - - ()
Sea Level Pressure  
Sea Level Pressure 29.79 in    
Wind  
Wind Speed 15 mph (SSW)    
Max Wind Speed 26 mph    
Max Gust Speed 37 mph    
Visibility 10 miles    
Events      
Averages and records for this station are not official NWS values.
T = Trace of Precipitation, MM = Missing Value Source: NWS Daily Summary

Daily Weather History Graph

Daily Weather History Graph

Search for Another Location

Airport:

Trip Planner

Search our weather history database for the weather conditions in past years. The results will help you decide how hot, cold, wet, or windy it might be!

Date:

Astronomy

Apr. 15, 2013 Rise Set
Actual Time 6:31 AM MDT 7:38 PM MDT
Civil Twilight 6:05 AM MDT 8:05 PM MDT
Nautical Twilight 5:33 AM MDT 8:36 PM MDT
Astronomical Twilight 5:01 AM MDT 9:09 PM MDT
Moon 10:05 AM MDT (4/15) No Moon Set
Length of Visible Light 13h 59m
Length of Day
13h 07m
Waxing Crescent, 25% of the Moon is Illuminated
Apr 15
Waxing Crescent
Apr 18
First Quarter
Apr 25
Full
May 2
Last Quarter
May 9
New

Hourly Weather History & Observations

Time (MDT) Temp. Windchill Dew Point Humidity Pressure Visibility Wind Dir Wind Speed Gust Speed Precip Events Conditions
12:15 AM 55.4 °F - 23.0 °F 29% 29.77 in 10.0 mi WSW 24.2 mph 35.7 mph N/A   Clear
12:35 AM 54.7 °F - 23.4 °F 30% 29.77 in 10.0 mi SW 21.9 mph 33.4 mph N/A   Clear
12:55 AM 53.8 °F - 23.5 °F 31% 29.78 in 10.0 mi WSW 19.6 mph 29.9 mph N/A   Clear
1:15 AM 53.2 °F - 23.7 °F 32% 29.78 in 10.0 mi WSW 20.7 mph 35.7 mph N/A   Clear
1:35 AM 52.7 °F - 23.5 °F 32% 29.78 in 10.0 mi WSW 17.3 mph 25.3 mph N/A   Clear
1:55 AM 52.2 °F - 23.4 °F 33% 29.78 in 10.0 mi WSW 18.4 mph 26.5 mph N/A   Clear
2:15 AM 51.8 °F - 23.0 °F 33% 29.78 in 10.0 mi SW 15.0 mph 21.9 mph N/A   Clear
2:35 AM 51.6 °F - 22.6 °F 32% 29.78 in 10.0 mi WSW 19.6 mph 25.3 mph N/A   Clear
2:55 AM 51.3 °F - 22.6 °F 33% 29.79 in 10.0 mi SSW 12.7 mph 18.4 mph N/A   Clear
3:15 AM 50.7 °F - 22.6 °F 33% 29.80 in 10.0 mi South 8.1 mph - N/A   Clear
3:35 AM 50.7 °F - 22.1 °F 33% 29.79 in 10.0 mi SSW 12.7 mph 20.7 mph N/A   Clear
3:55 AM 50.2 °F - 22.1 °F 33% 29.79 in 10.0 mi SW 6.9 mph 16.1 mph N/A   Clear
4:15 AM 50.0 °F - 21.9 °F 33% 29.80 in 10.0 mi South 5.8 mph - N/A   Clear
4:35 AM 48.6 °F - 22.1 °F 35% 29.80 in 10.0 mi South 4.6 mph - N/A   Clear
4:55 AM 47.3 °F - 22.6 °F 38% 29.81 in 10.0 mi SSE 5.8 mph - N/A   Clear
5:15 AM 46.2 °F 42.7 °F 23.0 °F 40% 29.81 in 10.0 mi SSE 6.9 mph - N/A   Clear
5:35 AM 47.3 °F - 22.1 °F 37% 29.80 in 10.0 mi South 9.2 mph - N/A   Clear
5:55 AM 47.5 °F - 21.9 °F 36% 29.80 in 10.0 mi South 9.2 mph - N/A   Clear
6:15 AM 47.8 °F - 21.7 °F 36% 29.81 in 10.0 mi South 10.4 mph 17.3 mph N/A   Clear
6:35 AM 46.2 °F 44.1 °F 22.1 °F 39% 29.83 in 10.0 mi South 4.6 mph - N/A   Clear
6:55 AM 47.3 °F - 21.9 °F 37% 29.83 in 10.0 mi South 8.1 mph - N/A   Clear
7:15 AM 47.7 °F - 22.1 °F 37% 29.83 in 10.0 mi SSW 5.8 mph - N/A   Clear
7:35 AM 47.5 °F - 22.6 °F 38% 29.83 in 10.0 mi SE 4.6 mph - N/A   Clear
7:55 AM 48.2 °F - 22.8 °F 37% 29.84 in 10.0 mi ESE 3.5 mph - N/A   Clear
8:15 AM 48.9 °F - 23.4 °F 37% 29.84 in 10.0 mi ESE 5.8 mph - N/A   Clear
8:35 AM 50.0 °F - 22.8 °F 34% 29.84 in 10.0 mi ESE 6.9 mph - N/A   Clear
8:55 AM 51.3 °F - 22.8 °F 33% 29.84 in 10.0 mi ESE 11.5 mph 16.1 mph N/A   Scattered Clouds
9:15 AM 52.2 °F - 22.5 °F 31% 29.84 in 10.0 mi South 6.9 mph - N/A   Mostly Cloudy
9:35 AM 53.1 °F - 22.1 °F 30% 29.83 in 10.0 mi SSW 13.8 mph 20.7 mph N/A   Mostly Cloudy
9:55 AM 54.7 °F - 22.3 °F 28% 29.83 in 10.0 mi SSW 9.2 mph 19.6 mph N/A   Scattered Clouds
10:15 AM 55.0 °F - 22.1 °F 28% 29.83 in 10.0 mi South 11.5 mph 20.7 mph N/A   Clear
10:35 AM 55.2 °F - 21.4 °F 27% 29.83 in 10.0 mi South 18.4 mph 24.2 mph N/A   Clear
10:55 AM 56.8 °F - 22.1 °F 26% 29.82 in 10.0 mi South 19.6 mph 24.2 mph N/A   Clear
11:15 AM 58.1 °F - 21.4 °F 24% 29.82 in 10.0 mi South 20.7 mph 26.5 mph N/A   Clear
11:35 AM 57.6 °F - 21.2 °F 24% 29.81 in 10.0 mi SSW 13.8 mph 27.6 mph N/A   Clear
11:55 AM 58.5 °F - 21.0 °F 24% 29.80 in 10.0 mi South 17.3 mph 26.5 mph N/A   Clear
12:15 PM 59.2 °F - 20.8 °F 23% 29.80 in 10.0 mi SSW 17.3 mph 33.4 mph N/A   Clear
12:35 PM 59.5 °F - 20.5 °F 22% 29.79 in 10.0 mi SSW 13.8 mph 21.9 mph N/A   Clear
12:55 PM 60.3 °F - 20.5 °F 22% 29.79 in 10.0 mi SSW 17.3 mph 28.8 mph N/A   Clear
1:15 PM 61.2 °F - 20.3 °F 21% 29.79 in 10.0 mi SSW 15.0 mph 27.6 mph N/A   Clear
1:35 PM 62.1 °F - 20.1 °F 20% 29.77 in 10.0 mi SW 20.7 mph 33.4 mph N/A   Clear
1:55 PM 62.4 °F - 20.3 °F 20% 29.77 in 10.0 mi South 12.7 mph 23.0 mph N/A   Clear
2:15 PM 62.8 °F - 18.5 °F 18% 29.76 in 10.0 mi South 21.9 mph 27.6 mph N/A   Clear
2:35 PM 63.5 °F - 18.3 °F 18% 29.76 in 10.0 mi SSW 11.5 mph 32.2 mph N/A   Clear
2:55 PM 65.3 °F - 17.6 °F 16% 29.75 in 10.0 mi South 17.3 mph 25.3 mph N/A   Clear
3:15 PM 65.3 °F - 17.1 °F 16% 29.74 in 10.0 mi South 19.6 mph 29.9 mph N/A   Clear
3:35 PM 66.0 °F - 16.2 °F 15% 29.74 in 10.0 mi SSW 13.8 mph 36.8 mph N/A   Clear
3:55 PM 66.6 °F - 16.3 °F 15% 29.72 in 10.0 mi SSW 20.7 mph 32.2 mph N/A   Clear
4:15 PM 68.2 °F - 15.3 °F 13% 29.71 in 10.0 mi South 21.9 mph 35.7 mph N/A   Clear
4:35 PM 68.4 °F - 14.4 °F 13% 29.70 in 10.0 mi South 19.6 mph 29.9 mph N/A   Clear
4:55 PM 68.4 °F - 14.5 °F 13% 29.71 in 10.0 mi SSW 21.9 mph 31.1 mph N/A   Clear
5:15 PM 67.6 °F - 14.9 °F 13% 29.71 in 10.0 mi SW 23.0 mph 36.8 mph N/A   Clear
5:35 PM 67.5 °F - 15.6 °F 14% 29.72 in 10.0 mi SW 26.5 mph 36.8 mph N/A   Clear
5:55 PM 66.4 °F - 16.5 °F 15% 29.73 in 10.0 mi SW 21.9 mph 33.4 mph N/A   Clear
6:15 PM 66.0 °F - 16.3 °F 15% 29.74 in 10.0 mi SW 15.0 mph 32.2 mph N/A   Clear
6:35 PM 65.3 °F - 15.4 °F 15% 29.75 in 10.0 mi SW 20.7 mph 31.1 mph N/A   Clear
6:55 PM 64.4 °F - 16.3 °F 16% 29.76 in 10.0 mi WSW 13.8 mph 25.3 mph N/A   Clear
7:15 PM 63.5 °F - 15.6 °F 16% 29.76 in 10.0 mi SW 13.8 mph 29.9 mph N/A   Clear
7:35 PM 62.4 °F - 15.4 °F 16% 29.77 in 10.0 mi SSW 9.2 mph - N/A   Clear
7:55 PM 61.7 °F - 15.4 °F 17% 29.77 in 10.0 mi SW 10.4 mph - N/A   Clear
8:15 PM 61.0 °F - 14.7 °F 16% 29.78 in 10.0 mi SSW 9.2 mph - N/A   Clear
8:35 PM 60.4 °F - 13.5 °F 16% 29.79 in 10.0 mi SW 18.4 mph 24.2 mph N/A   Clear
8:55 PM 59.9 °F - 13.5 °F 16% 29.80 in 10.0 mi SSW 13.8 mph 20.7 mph N/A   Clear
9:15 PM 59.0 °F - 13.6 °F 17% 29.81 in 10.0 mi SW 18.4 mph 26.5 mph N/A   Clear
9:35 PM 58.6 °F - 13.8 °F 17% 29.82 in 10.0 mi SSW 9.2 mph - N/A   Clear
9:55 PM 57.6 °F - 14.0 °F 18% 29.83 in 10.0 mi SSW 9.2 mph - N/A   Clear
10:15 PM 57.6 °F - 14.0 °F 18% 29.84 in 10.0 mi SSW 8.1 mph - N/A   Clear
10:35 PM 57.2 °F - 13.8 °F 18% 29.84 in 10.0 mi SSW 11.5 mph - N/A   Clear
10:55 PM 57.4 °F - 12.9 °F 17% 29.84 in 10.0 mi SW 12.7 mph 19.6 mph N/A   Clear
11:15 PM 56.8 °F - 13.6 °F 18% 29.85 in 10.0 mi SSW 9.2 mph 16.1 mph N/A   Clear
11:35 PM 56.5 °F - 14.0 °F 19% 29.85 in 10.0 mi South 5.8 mph - N/A   Clear
11:55 PM 55.0 °F - 14.2 °F 20% 29.85 in 10.0 mi SE 3.5 mph - N/A   Clear